www.pogodaiklimat.ru

Погода и климат >> Архив погоды >> Россия >> Якутия >> Верхоянский Перевоз


ПОГОДА в Верхоянском Перевозе

  • Прогноз погоды в Верхоянском Перевозе
  • Монитор погоды в Верхоянском Перевозе

АРХИВ ПОГОДЫ в Верхоянском Перевозе

Время (UTC), дата Ветер
(напр.,м/с)
 
Видим.   Явления Облачность Т
(С)
Тd
(С)
f
(%)
Тe
(С)
Тes
(С)
Комфортность P
(гПа)
Po
(гПа)
Тmin
(С)
Tmax
(С)
R
(мм)
R24
(мм)
S
(см)
00 17.01 штиль 0 50 км ясно -48.0 -50.6 74 -48 -48 опасность
обморожения
1035.2 1021.0 -48.4 28
03 17.01 штиль 0 50 км 3/0
[Cs]
-46.3 -48.6 77 -46 -46 опасность
обморожения
1033.9 1019.9
06 17.01 штиль 0 50 км 3/0
[Cs]
-43.9 -46.3 77 -44 -44 опасность
обморожения
1032.2 1018.3
09 17.01 штиль 0 50 км ясно -44.6 -47.0 77 -45 -45 опасность
обморожения
1031.8 1017.9
12 17.01 штиль 0 50 км ясно -45.0 -47.8 73 -45 -45 опасность
обморожения
1031.0 1017.0 -43.9
15 17.01 Ю 1 50 км ясно -44.3 -47.0 74 -50 -50 опасность
обморожения
1029.2 1015.4
18 17.01 штиль 0 20 км слаб. снег 4/0
[As op]
-43.8 -46.3 76 -44 -44 опасность
обморожения
1028.4 1014.6
21 17.01 штиль 0 50 км {снег} ясно -42.9 -45.6 75 -43 -43 опасность
обморожения
1027.5 1013.8
00 18.01 штиль 0 50 км {снег} 3/0
[Ac trans]
-43.4 -46.3 73 -43 -43 опасность
обморожения
1026.6 1012.8 -45.4 0.0 28
03 18.01 ЮВ 1 50 км 3/0
[Cs]
-42.5 -45.0 76 -48 -48 опасность
обморожения
1025.8 1012.1
06 18.01 ЮВ 1 50 км 3/0
[Cs]
-41.2 -43.8 76 -47 -47 опасность
обморожения
1025.2 1011.5
09 18.01 ЮВ 1 50 км 3/0
[Ci fib]
-41.9 -44.4 76 -47 -47 опасность
обморожения
1025.2 1011.5
12 18.01 штиль 0 50 км 3/0
[Ci fib]
-43.8 -46.3 76 -44 -44 опасность
обморожения
1025.3 1011.5 -41.2
15 18.01 штиль 0 50 км ясно -45.5 -47.8 77 -46 -46 опасность
обморожения
1025.4 1011.5
18 18.01 штиль 0 50 км ясно -46.9 -49.6 74 -47 -47 опасность
обморожения
1025.8 1011.8
21 18.01 штиль 0 50 км ясно -46.9 -49.6 74 -47 -47 опасность
обморожения
1026.1 1012.2
00 19.01 штиль 0 50 км ясно -47.9 -50.6 73 -48 -48 опасность
обморожения
1026.9 1012.8 -47.9 28
03 19.01 штиль 0 50 км 3/0
[Ci fib]
-45.8 -48.6 73 -46 -45 опасность
обморожения
1027.2 1013.2
06 19.01 штиль 0 50 км 3/0
[Cs]
-43.1 -45.6 76 -43 -43 опасность
обморожения
1026.8 1013.0
09 19.01 штиль 0 50 км ясно -44.6 -47.0 77 -45 -45 опасность
обморожения
1027.7 1013.9
12 19.01 штиль 0 50 км ясно -46.6 -49.6 71 -47 -47 опасность
обморожения
1028.3 1014.3 -43.1
15 19.01 штиль 0 50 км 6/0
[Ac trans]
-45.9 -48.1 78 -46 -46 опасность
обморожения
1028.8 1014.8
18 19.01 ЮВ 1 50 км 8/0
[Ac trans Cs]
-42.9 -45.0 80 -48 -48 опасность
обморожения
1027.2 1013.5
21 19.01 В 1 20 км слаб. снег 8/0
[Ac As Cs]
-42.3 -45.0 75 -48 -48 опасность
обморожения
1027.2 1013.5
00 20.01 В 1 20 км слаб. снег 5/0
[Ac As Cs]
-42.0 -45.0 72 -47 -47 опасность
обморожения
1025.8 1012.1 -45.9 0.0 28
03 20.01 В 2 50 км {снег} 3/0
[Ac trans Cs]
-40.8 -43.8 73 -50 -50 опасность
обморожения
1023.6 1010.1
06 20.01 В 1 50 км {снег} 4/0
[Ac trans Cs]
-39.2 -41.8 76 -44 -44 опасность
обморожения
1022.3 1008.8
09 20.01 штиль 0 50 км ясно -40.0 -42.2 79 -40 -40 опасность
обморожения
1021.9 1008.4
12 20.01 штиль 0 50 км ясно -42.4 -45.0 75 -42 -42 опасность
обморожения
1020.4 1006.8 -39.2 0.0
15 20.01 В 1 50 км ясно -44.3 -47.0 74 -50 -50 опасность
обморожения
1020.1 1006.4
18 20.01 штиль 0 50 км ясно -44.8 -47.8 72 -45 -45 опасность
обморожения
1019.2 1005.5
21 20.01 штиль 0 50 км ясно -45.3 -47.8 76 -45 -45 опасность
обморожения
1019.8 1006.0
00 21.01 штиль 0 50 км ясно -46.4 -48.6 78 -46 -46 опасность
обморожения
1019.4 1005.6 -45.4 28
03 21.01 ЮВ 1 50 км ясно -39.7 -42.3 76 -45 -44 опасность
обморожения
1018.4 1004.9
06 21.01 ЮВ 2 50 км 3/0
[Ci fib]
-37.6 -40.5 74 -46 -46 опасность
обморожения
1017.5 1004.1
09 21.01 штиль 0 50 км 3/0
[Ac trans]
-42.3 -45.0 75 -42 -42 опасность
обморожения
1017.8 1004.2
12 21.01 штиль 0 50 км 3/0
[Cs]
-44.0 -47.0 72 -44 -44 опасность
обморожения
1018.3 1004.6 -37.6
15 21.01 штиль 0 50 км 4/0
[Ac trans Cs]
-44.4 -47.0 75 -44 -44 опасность
обморожения
1019.7 1006.0
18 21.01 штиль 0 50 км 5/0
[Ac trans Cs]
-42.6 -45.6 72 -43 -43 опасность
обморожения
1021.3 1007.6
21 21.01 штиль 0 50 км 8/0
[Cs]
-43.9 -46.3 77 -44 -44 опасность
обморожения
1022.4 1008.6
00 22.01 штиль 0 50 км 10/0
[Cs]
-43.0 -45.6 75 -43 -43 опасность
обморожения
1022.8 1009.0 -44.4 28
03 22.01 штиль 0 50 км 8/0
[Ac trans Cs]
-38.6 -40.8 80 -39 -38 опасность
обморожения
1023.3 1009.9
06 22.01 штиль 0 50 км 8/0
[Ac trans Cs]
-36.0 -38.4 78 -36 -36 опасность
обморожения
1023.8 1010.5
09 22.01 штиль 0 50 км 8/0
[Ac trans Cs]
-34.8 -37.1 79 -35 -35 опасность
обморожения
1024.6 1011.4
12 22.01 штиль 0 50 км 4/0
[Cs]
-36.0 -38.4 78 -36 -36 опасность
обморожения
1026.1 1012.7 -34.7
15 22.01 штиль 0 50 км 3/0
[Cs]
-36.9 -39.1 80 -37 -37 опасность
обморожения
1028.1 1014.7
18 22.01 штиль 0 50 км 3/0
[Cs]
-37.2 -39.5 79 -37 -37 опасность
обморожения
1029.7 1016.2
21 22.01 штиль 0 50 км 6/0
[Ac trans Cs]
-35.4 -37.7 79 -35 -35 опасность
обморожения
1030.6 1017.2
00 23.01 штиль 0 50 км 5/0
[Ac trans Cs]
-35.5 -37.7 80 -36 -36 опасность
обморожения
1031.1 1017.7 -37.5 28
03 23.01 З 1 50 км 8/0
[Ac trans Cs]
-33.3 -35.6 80 -38 -37 опасность
обморожения
1031.8 1018.5
06 23.01 С 1 50 км 8/0
[Ac trans Cs]
-31.9 -34.4 78 -36 -36 опасность
обморожения
1032.5 1019.3
09 23.01 штиль 0 50 км 3/0
[Cs]
-35.1 -37.4 79 -35 -35 опасность
обморожения
1033.0 1019.6
12 23.01 штиль 0 50 км 8/0
[Cs]
-37.0 -39.1 81 -37 -37 опасность
обморожения
1033.7 1020.1 -31.8
15 23.01 штиль 0 50 км 3/0
[Cs]
-37.9 -40.3 78 -38 -38 опасность
обморожения
1034.6 1021.0

 

Местоположение метеостанции Верхоянский Перевоз (Якутия, Россия): широта 63.32 долгота 132.00 высота над уровнем моря 91 м.

В архиве по умолчанию представлена погода в Верхоянском Перевозе за последнюю неделю. Архивные данные за месяц целиком и за предыдущие месяцы, начиная с января 2011 года, Вы можете получить, выбрав интересующий диапазон дат из раскрывающегося списка и нажав кнопку "Ввод!".


*Определитесь, кто Вы:
робот инопланетянин человек

Внимание! Время в таблицах - всемирное. Для получения местного времени необходимо прибавить поправку, которая равна 9 ч.

Смотрите также архив погоды в соседних городах и на ближайших метеорологических станциях:

Погода в Сеген-Кюеле (Якутия, Россия) (113 км)
Погода в Ытык-Кюёле (Якутия, Россия) (130 км)
Погода в Батамае (Якутия, Россия) (131 км)
Погода в Крест-Хальджае (Якутия, Россия) (133 км)
Погода в Намцах (Якутия, Россия) (138 км)
Погода в Чурапче (Якутия, Россия) (147 км)
Погода в Якутске (Якутия, Россия) (191 км)
Погода в Томпо (Якутия, Россия) (200 км)
Погода в Сангаре (Якутия, Россия) (238 км)
Погода в Себян-Кюеле (Якутия, Россия) (240 км)

Пояснения к столбцам:

Ветер - указаны скорость ветра в м/с - средняя за 10 мин, порывы в срок и между сроками (в фигурных скобках) и направление, откуда дует ветер: С - северный, СВ - северо-восточный, В - восточный, ЮВ - юго-восточный, Ю - южный, ЮЗ - юго-западный, З - западный, СЗ - северо-западный.
Видимость - горизонтальная дальность видимости в метрах или километрах. При видимости от 1 до 10 км при отсутствии осадков обычно наблюдается дымка, при ухудшении видимости до 1 км и менее - туман. В сухую погоду видимость может ухудшаться дымом, пылью или мглою.
Явления - указаны атмосферные явления, наблюдавшиеся в срок или в последний час перед сроком; фигурными скобками обозначены явления, наблюдавшиеся между сроками (за 1-3 часа до срока); квадратными скобками обозначены град или гололедные отложения с указанием их диаметра в мм.
Облачность - указаны через наклонную черту общая и нижняя облачность в баллах и высота нижней границы облаков в метрах; квадратными скобками обозначены формы облаков: Ci - перистые, Cs - перисто-слоистые, Cc - перисто-кучевые, Ac - высококучевые, As - высокослоистые, Sc - слоисто-кучевые, Ns - слоисто-дождевые, Cu - кучевые, Cb - кучево-дождевые. Подробнее классификацию облаков см. в Атласе облаков (PDF).
T - Температура воздуха - температура, измеренная на высоте 2 м над землей.
Td - Температура точки росы - температура, при понижении до которой содержащийся в воздухе водяной пар достигнет насыщения.
f - Относительная влажность воздуха - влажноcть воздуха, измеренная на высоте 2 м над землей.
Te - Эффективная температура - температура, которую ощущает одетый по сезону человек в тени. Характеристика душности погоды. При расчете учитывается влияние влажности воздуха и скорости ветра на теплоощущения человека.
Tes - Эффективная температура на солнце - температура, которую ощущает человек, с поправкой на солнечный нагрев. Характеристика знойности погоды. Зависит от высоты солнца над горизонтом, облачности и скорости ветра. Ночью, в пасмурную погоду, а также при ветре 12 м/с и более поправка равна нулю.
P - Атмосферное давление - приведенное к уровню моря атмосферное давление.
Po - Атмосферное давление - измеренное на уровне метеостанции атмосферное давление.
Tmin - Минимальная температура - минимум температуры воздуха на высоте 2 м над землей.
Tmax - Максимальная температура - максимум температуры воздуха на высоте 2 м над землей.
R - Количество осадков - Количество выпавших осадков за период времени, мм. При наведении курсора мыши на число - период времени, за который выпало указанное количество осадков.
R24 - Количество осадков - Количество выпавших осадков за 24 часа, мм.
S - Снежный покров - Высота снежного покрова, см. При наведении курсора мыши на число - состояние снежного покрова и степень покрытия местности в баллах.